Zurück zum Katalog

ATLAS CENTAUR R/B

AktivGTO
NORAD 6058·ROCKET BODY·🇺🇸 United States

Gestartet Jun 13, 1972 von Cape Canaveral Space Force Station

Loading…

TLE

VeraltetSource: Space-Track

Epoche: Sep 13, 2026, 22:33 UTC

1 06058U 72041B   26256.93969842 -.00000080  00000-0  12990-2 0  9996
2 06058  26.3413 202.8870 7178880 148.8881 287.3861  2.22595301439374

Verfolge ATLAS CENTAUR R/B in Echtzeit mit AllMySat

Download on the App Store